Weather in Manzini

Swaziland     26°30′29″S   31°22′13″E
В апреле 2022 года жителям России запретили посещать сайт meteo.paraplan.net по решению Генеральной прокуратуры. Аудитория сайта уменьшилась в 10 раз. Владельцы сайта не видят смысла в поддержке погодного сервера в таких условиях. Сайт будет закрыт в октябре.
temp.,
°C
wind,
m/s
gust,
m/s
humid.,
%
clouds,
%
prec.,
mm/h
press.,
hPa
HPBL,
m
25 september, sun
sun2523:00+20nnw11640 0.0 101819
02:00+19nw11690 0.0 101714
05:00+17w11740 0.0 101711
08:00+23nne12540 0.0 1017387
11:00+29ene34350 0.0 10141324
14:00+33ne66230 0.0 10102609
17:00+29ne69260 0.0 1010676
20:00+23nnw34370 0.0 101365
26 september, mon
mon2623:00+21wnw33420 0.0 101333
02:00+20w22440 0.0 101219
05:00+19w22470 0.0 101318
08:00+25wnw22320 0.0 1014320
11:00+32e33200 0.0 10111656
14:00+34ene65180 0.0 10092397
17:00+31ne69200 0.0 1009554
20:00+24n22320 0.0 101418
27 september, tue
tue2723:00+21e11400 0.0 101611
02:00+18ese11610 0.0 101811
05:00+16e119021 0.0 102015
08:00+18ese2282100 0.1 1023548
11:00+20ese227294 0.1 1023742
14:00+24e32562 0.1 10211031
17:00+24ene23520 0.0 10201045
20:00+20ne24691 0.0 102379
28 september, wed
wed2823:00+17ne119636 0.0 102518
02:00+18ne119274 0.0 1024177
05:00+17ne119164 0.1 1025103
08:00+19e227969 0.4 1027513
11:00+23ene44500 0.1 10251316
14:00+27ene45340 0.1 10211892
17:00+25ene55370 0.0 10211605
20:00+18ene35660 0.0 1025246
29 september, thu
thu2923:00+15nne118730 0.0 102588
02:00+14nnw119012 0.0 102372
05:00+13wnw11900 0.0 102313
08:00+18ne11580 0.0 1023474
11:00+26ene44260 0.0 10191211
14:00+29ene55190 0.0 10161579
17:00+26ne57250 0.0 1015714
20:00+19nne22450 0.0 101825